sat.trackr.live / text

‹ back to catalog

ES'HAIL 1

NORAD 39233 · 2013-044A

PAYLOAD ACTIVE UNKNOWN

§ Identity

Operator
Country
AB
Launch date
2013-08-29
Launch site
FRGUI
Launch vehicle
Mass (kg)
RCS (m²)
12.51

Purposes: comms

External: N2YO · Heavens-Above · Gunter

§ Orbital elements

Epoch: 2026-09-20T01:38:46.409280Z

Period
1,436.06 min
Inclination
0.0513°
Eccentricity
0.0002306
Mean motion
1.00274561 rev/d
Perigee alt
35,776.1 km
Apogee alt
35,795.5 km
Semi-major
42,164.0 km
B*
0.0000e+0
RAAN
2.6644°
Arg perigee
170.7820°
Mean anomaly
235.7192°
Rev number
4,757

§ Raw data

ES'HAIL 11 39233U 13044A   26263.06859270  .00000139  00000+0  00000+0 0  99992 39233   0.0513   2.6644 0002306 170.7820 235.7192  1.00274561 47577

JSON: /api/v1/satellites/39233 · /tle

For live sub-satellite position, see the globe view (requires WebGL).

§ Visibility from observer

Set your observer location to see the next 7 days of passes ≥ 10°. The values pass through the URL so the page stays shareable.

No JS? Fill the form by hand. The geolocation button needs JavaScript.